Location: Fond Mahaut
(18.0707°N, 63.0465°W)
Time: 09:01:57
(UTC+00:00)

FengYun 1-2 T - Pass Details

Date: 08 December 2019
Orbit: 847 x 880 km, 98.7° (Epoch: 21 January)

Event Time Altitude Azimuth Distance (km) Brightness Sun altitude
Rises 22:21:11 0° 156° (SSE) 3,402 7.3 -10.7°
Reaches altitude 10° 22:23:36 10° 151° (SSE) 2,465 6.5 -11.2°
Maximum altitude 22:28:54 53° 76° (ENE) 1,028 4.3 -12.4°
Drops below altitude 10° 22:34:12 10° 360° (N) 2,467 6.4 -13.6°
Sets 22:36:37 0° 356° (N) 3,405 7.2 -14.1°
